When you browse on this site, cookies collect data to enhance your experience and personalize the content and advertising you see.
Visit our Privacy Policy to learn more. By continuing to use the site, you agree to this use of cookies and data.
  • In United Kingdom
  • List of Countries
  • For 7 days
  • Water Temperature
  • Weather Map
  • Weather Widgets
  • user-avatar
    Login

    Hourly Weather Chichester

    Today, 19 November, Tuesday

    Time Temperature Precipitation Wind Pressure Humidity
    00:00 +4°C° 0 mm 1 mps 761 mmHg 90%
    01:00 +4°C° 0 mm 1 mps 761 mmHg 90%
    02:00 +4°C° 0 mm 1 mps 761 mmHg 90%
    03:00 +3°C° 0 mm 0 mps 760 mmHg 90%
    04:00 +4°C° 0 mm 1 mps 760 mmHg 89%
    05:00 +4°C° 0 mm 1 mps 760 mmHg 89%
    06:00 +4°C° 0 mm 1 mps 760 mmHg 88%
    07:00 +5°C° 0 mm 1 mps 760 mmHg 87%
    08:00 +4°C° 0 mm 2 mps 761 mmHg 85%
    09:00 +5°C° 0 mm 2 mps 761 mmHg 84%
    10:00 +5°C° 0 mm 3 mps 761 mmHg 82%
    11:00 +7°C° 0 mm 3 mps 761 mmHg 80%
    12:00 +7°C° 0 mm 4 mps 761 mmHg 79%
    13:00 +7°C° 0 mm 4 mps 760 mmHg 80%
    14:00 +7°C° 0 mm 5 mps 760 mmHg 82%
    15:00 +7°C° 0 mm 5 mps 760 mmHg 84%
    16:00 +7°C° 0 mm 5 mps 760 mmHg 84%
    17:00 +6°C° 0 mm 5 mps 760 mmHg 85%
    18:00 +5°C° 0 mm 5 mps 760 mmHg 86%
    19:00 +5°C° 0 mm 5 mps 760 mmHg 86%
    20:00 +6°C° 0 mm 5 mps 760 mmHg 86%
    21:00 +5°C° 0 mm 6 mps 760 mmHg 85%
    22:00 +5°C° 0 mm 6 mps 760 mmHg 86%
    23:00 +5°C° 0 mm 6 mps 759 mmHg 87%

    Tomorrow, 20 November, Wednesday

    Time Temperature Precipitation Wind Pressure Humidity
    00:00 +5°C° 0 mm 6 mps 759 mmHg 88%
    01:00 +5°C° 0 mm 6 mps 759 mmHg 87%
    02:00 +6°C° 0 mm 5 mps 759 mmHg 86%
    03:00 +6°C° 0 mm 5 mps 758 mmHg 84%
    04:00 +6°C° 0 mm 5 mps 758 mmHg 85%
    05:00 +5°C° 0 mm 5 mps 758 mmHg 85%
    06:00 +5°C° 0 mm 5 mps 758 mmHg 85%
    07:00 +4°C° 0 mm 6 mps 758 mmHg 83%
    08:00 +5°C° 0 mm 6 mps 758 mmHg 81%
    09:00 +5°C° 0 mm 7 mps 758 mmHg 79%
    10:00 +5°C° 0 mm 7 mps 757 mmHg 78%
    11:00 +5°C° 0 mm 7 mps 757 mmHg 76%
    12:00 +5°C° 0 mm 8 mps 757 mmHg 75%
    13:00 +5°C° 0 mm 8 mps 756 mmHg 75%
    14:00 +5°C° 0 mm 7 mps 756 mmHg 75%
    15:00 +4°C° 0 mm 7 mps 755 mmHg 75%
    16:00 +4°C° 0 mm 7 mps 755 mmHg 77%
    17:00 +4°C° 0 mm 7 mps 755 mmHg 79%
    18:00 +3°C° 0 mm 7 mps 755 mmHg 82%
    19:00 +4°C° 0 mm 7 mps 755 mmHg 82%
    20:00 +4°C° 0 mm 7 mps 754 mmHg 83%
    21:00 +4°C° 0 mm 7 mps 754 mmHg 84%
    22:00 +4°C° 0 mm 6 mps 754 mmHg 84%
    23:00 +5°C° 0 mm 6 mps 753 mmHg 83%

    Day after tomorrow, 21 November, Thursday

    Time Temperature Precipitation Wind Pressure Humidity
    00:00 +5°C° 0 mm 6 mps 753 mmHg 83%
    01:00 +5°C° 0 mm 6 mps 753 mmHg 83%
    02:00 +5°C° 0 mm 6 mps 752 mmHg 83%
    03:00 +5°C° 0 mm 6 mps 752 mmHg 83%
    04:00 +5°C° 0 mm 6 mps 751 mmHg 85%
    05:00 +5°C° 0 mm 6 mps 751 mmHg 86%
    06:00 +4°C° 0 mm 7 mps 751 mmHg 88%
    07:00 +5°C° 0 mm 7 mps 751 mmHg 87%
    08:00 +5°C° 0 mm 7 mps 750 mmHg 86%
    09:00 +6°C° 0 mm 8 mps 750 mmHg 86%
    10:00 +6°C° 0 mm 8 mps 750 mmHg 85%
    11:00 +7°C° 0 mm 8 mps 750 mmHg 85%
    12:00 +7°C° 0 mm 8 mps 750 mmHg 85%
    13:00 +7°C° 0.4 mm 8 mps 749 mmHg 87%
    14:00 +7°C° 0.4 mm 8 mps 749 mmHg 88%
    15:00 +7°C° 0.4 mm 8 mps 748 mmHg 90%
    16:00 +7°C° 0.3 mm 8 mps 748 mmHg 89%
    17:00 +7°C° 0.3 mm 8 mps 748 mmHg 88%
    18:00 +7°C° 0.3 mm 8 mps 748 mmHg 86%
    19:00 +7°C° 0.4 mm 8 mps 748 mmHg 85%
    20:00 +7°C° 0.4 mm 8 mps 748 mmHg 84%
    21:00 +7°C° 0.4 mm 8 mps 748 mmHg 83%
    22:00 +7°C° 0.3 mm 8 mps 748 mmHg 83%
    23:00 +7°C° 0.3 mm 8 mps 748 mmHg 82%

    22 November, Friday

    Time Temperature Precipitation Wind Pressure Humidity
    00:00 +7°C° 0.3 mm 8 mps 748 mmHg 81%
    01:00 +6°C° 0.4 mm 8 mps 748 mmHg 81%
    02:00 +6°C° 0.4 mm 8 mps 748 mmHg 82%
    03:00 +6°C° 0.4 mm 8 mps 749 mmHg 82%
    04:00 +6°C° 0.1 mm 7 mps 749 mmHg 83%
    05:00 +6°C° 0.1 mm 7 mps 749 mmHg 84%
    06:00 +6°C° 0.1 mm 7 mps 749 mmHg 85%
    07:00 +7°C° 0 mm 6 mps 749 mmHg 84%
    08:00 +7°C° 0 mm 6 mps 749 mmHg 84%
    09:00 +8°C° 0 mm 6 mps 750 mmHg 84%
    10:00 +8°C° 0 mm 6 mps 749 mmHg 83%
    11:00 +9°C° 0 mm 7 mps 749 mmHg 81%
    12:00 +9°C° 0 mm 8 mps 749 mmHg 80%
    13:00 +9°C° 0 mm 7 mps 748 mmHg 81%
    14:00 +9°C° 0 mm 7 mps 748 mmHg 83%
    15:00 +8°C° 0 mm 7 mps 747 mmHg 84%
    16:00 +8°C° 0 mm 7 mps 747 mmHg 85%
    17:00 +7°C° 0 mm 8 mps 747 mmHg 85%
    18:00 +7°C° 0 mm 8 mps 747 mmHg 86%
    19:00 +7°C° 0 mm 8 mps 746 mmHg 86%
    20:00 +7°C° 0 mm 8 mps 746 mmHg 87%
    21:00 +7°C° 0 mm 8 mps 746 mmHg 88%
    22:00 +7°C° 0 mm 8 mps 745 mmHg 87%
    23:00 +7°C° 0 mm 8 mps 745 mmHg 86%

    23 November, Saturday

    Time Temperature Precipitation Wind Pressure Humidity
    00:00 +7°C° 0 mm 9 mps 745 mmHg 86%
    01:00 +7°C° 0.3 mm 9 mps 744 mmHg 86%
    02:00 +7°C° 0.3 mm 9 mps 744 mmHg 86%
    03:00 +7°C° 0.3 mm 9 mps 744 mmHg 86%
    04:00 +7°C° 0.8 mm 9 mps 744 mmHg 88%
    05:00 +7°C° 0.8 mm 9 mps 744 mmHg 90%
    06:00 +7°C° 0.8 mm 9 mps 744 mmHg 92%
    07:00 +9°C° 0.4 mm 8 mps 744 mmHg 91%
    08:00 +9°C° 0.4 mm 8 mps 744 mmHg 91%
    09:00 +9°C° 0.4 mm 8 mps 745 mmHg 90%
    10:00 +9°C° 1 mm 8 mps 745 mmHg 90%
    11:00 +9°C° 1 mm 8 mps 746 mmHg 91%
    12:00 +9°C° 1 mm 7 mps 746 mmHg 92%
    13:00 +9°C° 0.7 mm 7 mps 747 mmHg 89%
    14:00 +9°C° 0.7 mm 6 mps 747 mmHg 87%
    15:00 +9°C° 0.7 mm 6 mps 747 mmHg 84%
    16:00 +8°C° 0 mm 5 mps 748 mmHg 85%
    17:00 +8°C° 0 mm 5 mps 749 mmHg 86%
    18:00 +8°C° 0 mm 5 mps 749 mmHg 86%
    19:00 +7°C° 0 mm 5 mps 750 mmHg 88%
    20:00 +7°C° 0 mm 4 mps 751 mmHg 90%
    21:00 +7°C° 0 mm 4 mps 751 mmHg 91%
    22:00 +8°C° 0 mm 3 mps 752 mmHg 92%
    23:00 +7°C° 0 mm 3 mps 752 mmHg 92%

    24 November, Sunday

    Time Temperature Precipitation Wind Pressure Humidity
    00:00 +7°C° 0 mm 2 mps 752 mmHg 93%
    01:00 +7°C° 0 mm 2 mps 753 mmHg 93%
    02:00 +7°C° 0 mm 2 mps 753 mmHg 94%
    03:00 +7°C° 0 mm 2 mps 753 mmHg 94%
    04:00 +7°C° 0 mm 2 mps 754 mmHg 94%
    05:00 +8°C° 0 mm 1 mps 754 mmHg 94%
    06:00 +8°C° 0 mm 1 mps 754 mmHg 95%
    07:00 +9°C° 0 mm 1 mps 754 mmHg 95%
    08:00 +8°C° 0 mm 2 mps 755 mmHg 94%
    09:00 +9°C° 0 mm 2 mps 755 mmHg 94%
    10:00 +10°C° 0 mm 3 mps 755 mmHg 93%
    11:00 +10°C° 0 mm 4 mps 755 mmHg 91%
    12:00 +10°C° 0 mm 5 mps 755 mmHg 90%
    13:00 +10°C° 0 mm 5 mps 755 mmHg 89%
    14:00 +10°C° 0 mm 6 mps 755 mmHg 88%
    15:00 +10°C° 0 mm 6 mps 755 mmHg 86%
    16:00 +10°C° 0 mm 7 mps 754 mmHg 85%
    17:00 +9°C° 0 mm 8 mps 754 mmHg 85%
    18:00 +9°C° 0 mm 8 mps 754 mmHg 84%
    19:00 +8°C° 0.2 mm 9 mps 753 mmHg 86%
    20:00 +9°C° 0.2 mm 10 mps 753 mmHg 88%
    21:00 +9°C° 0.2 mm 11 mps 752 mmHg 90%
    22:00 +9°C° 0.9 mm 12 mps 751 mmHg 90%
    23:00 +9°C° 0.9 mm 12 mps 750 mmHg 90%
    Show more